Main page
METAR-TAF:

METAR-TAF

Airports :

Fremont Municipal Airport

Fremont, Nebraska, United States

latitude: 41-27N, longitude: 096-31W, elevation: 1243 ft

Current weather observation

The report was made 25 minutes ago, at 13:35 UTC
Wind 3 mph from the South
Temperature 30°F
Humidity 86%
Pressure 30.09 in. Hg
Visibility: 10 miles
Clear sky

METAR: KFET 221335Z AUTO 19003KT 10SM CLR M01/M03 A3009 RMK AO2 T10061032

Time: 08:00 (14:00 UTC)


TAF: missing

Weather observations and forecasts of more than 4000 airports (METAR and TAF reports).

The available stations are represented by yellow and red dots on the map.

Hover mouse over dot to see the name of the station.

Then click to see weather observations and forecasts.

To change the map : click on the green buttons with a black cross to zoom in, on the green button with a dash to zoom out, or on the green arrows for adjacent maps.


METAR-TAF: